LA8QT Lodingen NO current weather conditions

sailwx.info

Wind from 036

Air temperature 1.7° C
Dewpoint -1.9° C

Last reported at 2014-Oct-30 22:43 UTC.
Time now 2014-Oct-30 23:43 UTC

Location: N 68°28' E 016°04'.
View on Google Maps.

See reports from other nearby stations

  
Tides and Currents Weather Stations Pressure Air Temp Water Temp Dewpoint Dewpoint Depression Visibility Wind Speed Wind Dir Waves Ship Positions
date/time (UTC)wind fromknots sea level pressurealtimeterstation pressurevisibilityair tempwater tempwave heightnotes
2014-Oct-30 22:43 036 1.7
2014-Oct-30 22:28 036 1.7
2014-Oct-30 22:13 036 2 1.7
2014-Oct-30 21:58 036 0 2.2
2014-Oct-30 21:43 039 2 2.2
2014-Oct-30 21:28 039 0 2.2
2014-Oct-30 21:13 039 2.8
2014-Oct-30 20:58 039 1 2.2
2014-Oct-30 20:43 039 0 1.7
2014-Oct-30 20:28 039 1.1
2014-Oct-30 20:13 039 1.7
2014-Oct-30 19:58 039 1 1.7
2014-Oct-30 19:43 039 1 1.7
2014-Oct-30 19:28 039 2 1.1
2014-Oct-30 19:13 039 0 1.7
2014-Oct-30 18:58 039 1 1.1
2014-Oct-30 18:42 039 1.7
2014-Oct-30 18:27 039 0 1.1
2014-Oct-30 18:12 039 1.7
2014-Oct-30 17:57 039 0 1.7
2014-Oct-30 17:42 039 5 2.2
2014-Oct-30 17:27 041 0 2.2
2014-Oct-30 17:12 041 1.7
2014-Oct-30 16:57 040 1 1.7
2014-Oct-30 16:42 041 1.7
2014-Oct-30 16:27 040 1.7
2014-Oct-30 16:12 040 1.7
2014-Oct-30 15:57 040 2.2
2014-Oct-30 15:42 041 2 2.2
2014-Oct-30 15:27 041 2.2
2014-Oct-30 15:12 041 2.2
2014-Oct-30 14:57 041 1 2.2
2014-Oct-30 14:42 041 3 2.2
2014-Oct-30 14:27 041 6 2.8
2014-Oct-30 14:12 052 6 3.3
2014-Oct-30 13:57 076 2.8
2014-Oct-30 13:42 076 3.3
2014-Oct-30 13:27 076 0 3.3
2014-Oct-30 13:12 076 3.9
2014-Oct-30 12:57 076 3.9
2014-Oct-30 12:42 075 3.9
2014-Oct-30 12:27 076 3.9
2014-Oct-30 12:12 075 3.9
2014-Oct-30 11:57 075 1 3.9
2014-Oct-30 11:42 076 2 3.9
2014-Oct-30 11:27 076 6 3.9
2014-Oct-30 11:12 033 2 4.4
2014-Oct-30 10:57 030 5.0
2014-Oct-30 10:42 029 5.0
2014-Oct-30 10:27 029 4.4
2014-Oct-30 10:12 029 4.4
2014-Oct-30 09:57 029 1 4.4
2014-Oct-30 09:42 029 3.3
2014-Oct-30 09:27 029 3.9
2014-Oct-30 09:12 029 0 3.9
2014-Oct-30 08:57 029 3.9
2014-Oct-30 08:41 029 3.9
2014-Oct-30 08:26 029 4.4
2014-Oct-30 08:11 029 3.9
2014-Oct-30 07:56 030 3.9
2014-Oct-30 07:41 029 3.9
2014-Oct-30 07:26 030 2 3.9
2014-Oct-30 07:11 029 5 4.4
2014-Oct-30 06:56 010 3 4.4
2014-Oct-30 06:41 356 4 4.4
2014-Oct-30 06:26 285 0 3.9
2014-Oct-30 06:11 285 3.3
2014-Oct-30 05:56 285 3.3
2014-Oct-30 05:41 285 3.3
2014-Oct-30 05:26 285 1 3.3
2014-Oct-30 05:11 284 0 3.3
2014-Oct-30 04:56 284 0 3.9
2014-Oct-30 04:41 284 2 3.3
2014-Oct-30 04:26 284 2 3.3
2014-Oct-30 04:11 284 2 3.3
2014-Oct-30 03:56 283 0 3.3
2014-Oct-30 03:41 283 2 3.9
2014-Oct-30 03:26 283 3 3.9
2014-Oct-30 03:11 283 0 4.4
2014-Oct-30 02:56 283 3.9
2014-Oct-30 02:41 283 3.9
2014-Oct-30 02:26 283 3.9
2014-Oct-30 02:10 284 3.9
2014-Oct-30 01:55 284 0 4.4
2014-Oct-30 01:40 284 4.4
2014-Oct-30 01:25 284 4.4
2014-Oct-30 01:10 284 0 4.4
2014-Oct-30 00:55 284 1 4.4
2014-Oct-30 00:40 284 1 3.9
2014-Oct-30 00:25 284 3.9
2014-Oct-30 00:10 284 3.9
2014-Oct-29 23:55 284 0 4.4
2014-Oct-29 23:40 289 1 4.4
2014-Oct-29 23:25 289 4.4
2014-Oct-29 23:10 289 0 4.4
2014-Oct-29 22:55 289 0 4.4
2014-Oct-29 22:40 289 2 4.4
2014-Oct-29 22:25 289 4 4.4
2014-Oct-29 22:10 289 3 4.4
2014-Oct-29 21:55 282 3 4.4
2014-Oct-29 21:40 282 3 4.4
2014-Oct-29 21:25 282 3 4.4
2014-Oct-29 21:10 282 1 4.4
2014-Oct-29 20:55 282 4.4
2014-Oct-29 20:40 282 1 4.4
2014-Oct-29 20:25 282 2 4.4
2014-Oct-29 20:10 282 4 4.4
2014-Oct-29 19:55 289 0 4.4
2014-Oct-29 19:40 289 0 4.4
2014-Oct-29 19:25 289 2 4.4
2014-Oct-29 19:10 289 4.4
2014-Oct-29 18:55 289 2 4.4
2014-Oct-29 18:40 289 1 4.4
2014-Oct-29 18:25 289 1 4.4
2014-Oct-29 18:10 289 3 4.4
2014-Oct-29 17:55 281 5 5.0
2014-Oct-29 17:40 274 6 5.0
2014-Oct-29 17:25 280 5 5.0
2014-Oct-29 17:10 280 4 5.6
2014-Oct-29 16:55 280 6 5.6
2014-Oct-29 16:40 275 5 5.6
2014-Oct-29 16:25 271 3 5.6
2014-Oct-29 16:10 270 5 5.6
2014-Oct-29 15:55 197 5.0
2014-Oct-29 15:40 188 5.0
2014-Oct-29 15:25 188 0 5.0
2014-Oct-29 15:10 178 6 5.0
2014-Oct-29 14:55 200 5 5.6
2014-Oct-29 14:40 220 5 5.6
2014-Oct-29 14:25 249 0 5.0
2014-Oct-29 14:10 250 5.0
2014-Oct-29 13:55 250 0 5.0
2014-Oct-29 13:40 250 1 5.0
2014-Oct-29 13:25 249 2 5.0
2014-Oct-29 13:10 249 5.0
2014-Oct-29 12:55 249 1 5.6
2014-Oct-29 12:39 249 0 5.6
2014-Oct-29 12:24 249 0 5.6
2014-Oct-29 12:09 249 5.6
2014-Oct-29 11:54 208 6 5.6
2014-Oct-29 11:39 211 8 5.6
2014-Oct-29 11:24 203 8 5.0
2014-Oct-29 11:09 209 14 5.0
2014-Oct-29 10:54 211 12 5.0
2014-Oct-29 10:39 211 14 5.0
2014-Oct-29 10:24 228 7 5.0
2014-Oct-29 10:09 218 9 4.4
2014-Oct-29 09:54 248 6 5.0
2014-Oct-29 09:39 242 6 5.0
2014-Oct-29 09:24 222 6 5.0
2014-Oct-29 09:09 261 2 5.0
2014-Oct-29 08:54 267 0 5.0
2014-Oct-29 08:39 267 5.0
2014-Oct-29 08:24 267 0 5.0
2014-Oct-29 08:09 267 1 4.4
2014-Oct-29 07:54 282 6 4.4
2014-Oct-29 07:39 278 9 5.0
2014-Oct-29 07:24 268 9 6.1
2014-Oct-29 07:09 263 4 6.1
2014-Oct-29 06:54 234 7 6.1
2014-Oct-29 06:39 199 12 6.1
2014-Oct-29 06:24 215 5 5.6
2014-Oct-29 06:09 265 5.0
2014-Oct-29 05:54 265 5.6
2014-Oct-29 05:39 253 6 6.1
2014-Oct-29 05:24 200 9 6.1
2014-Oct-29 05:09 202 1 5.6
2014-Oct-29 04:54 230 15 5.6
2014-Oct-29 04:39 206 13 5.6
2014-Oct-29 04:24 205 13 5.6
2014-Oct-29 04:09 205 1 4.4
2014-Oct-29 03:54 294 0 3.9
2014-Oct-29 03:39 299 0 4.4
2014-Oct-29 03:24 299 4.4
2014-Oct-29 03:09 299 2 5.0
2014-Oct-29 02:54 299 3 5.0
2014-Oct-29 02:39 299 0 4.4
2014-Oct-29 02:24 299 4.4
2014-Oct-29 02:09 294 4.4
2014-Oct-29 01:54 299 3.9
2014-Oct-29 01:39 294 4.4
2014-Oct-29 01:24 294 0 4.4
2014-Oct-29 01:09 294 4 5.0
2014-Oct-29 00:54 304 4 5.0
2014-Oct-29 00:39 309 3 5.0
2014-Oct-29 00:24 311 6 5.0
2014-Oct-29 00:10 260 2 3.9
2014-Oct-28 23:53 270 5 4.4
2014-Oct-28 23:38 251 8 6.1
2014-Oct-28 23:23 251 7 6.1
2014-Oct-28 23:08 235 4 5.6